Miscellaneous Local Product
Issued by NWS Hastings, NE

Home | Current Version | Previous Version | Graphics & Text | Print | Product List | Glossary On
Versions: 1 2 3 4 5 6 7 8 9 10 11 12 13 14 15 16 17 18 19 20 21 22 23 24 25 26 27 28 29 30 31 32 33 34 35 36 37 38 39 40 41 42 43 44 45 46 47 48 49 50
000
AXUS43 KGID 312102
MISGRI

GID CWA HOURLY WEATHER ROUNDUP
NATIONAL WEATHER SERVICE HASTINGS NE
400 PM CDT SUN AUG 31 2014

NOTE: "FAIR" INDICATES FEW OR NO CLOUDS BELOW 12,000 FEET WITH NO
SIGNIFICANT WEATHER AND/OR OBSTRUCTIONS TO VISIBILITY.

...SOUTH CENTRAL NEBRASKA...

CITY           SKY/WX    TMP DP  RH WIND       PRES   REMARKS
GRAND ISLAND   PTSUNNY   85  66  53 W7        29.74R
HASTINGS       CLOUDY    81  64  56 NW9       29.73R
KEARNEY        PTSUNNY   81  63  54 NW25G31   29.76F
ORD            CLOUDY    74  58  57 N15       29.77F
YORK           PTSUNNY   84 N/A N/A S13       29.72F
AURORA         MOSUNNY   85  67  55 W6        29.73R
LEXINGTON      MOSUNNY   73  59  62 N9        29.82R
HOLDREGE       PTSUNNY   80  63  56 N12G24    29.76F
HEBRON         MOSUNNY   87  63  44 S12G21    29.67F

...NEBRASKA PANHANDLE...

CITY           SKY/WX    TMP DP  RH WIND       PRES   REMARKS
CHADRON        LGT RAIN  72  57  59 NE6       29.71F
ALLIANCE       PTSUNNY   71  50  47 W17G25    29.79F
SCOTTSBLUFF    CLOUDY    75  49  39 SW10      29.81F
SIDNEY         TSTM      66  46  48 W12G49    29.84F

...WESTERN AND NORTH CENTRAL NEBRASKA...

CITY           SKY/WX    TMP DP  RH WIND       PRES   REMARKS
VALENTINE      CLOUDY    68  60  75 SE6       29.76S
AINSWORTH      DRIZZLE   62  59  89 SE13      29.71F
ONEILL         LGT RAIN  72  62  69 NW5       29.81F
BROKEN BOW     CLOUDY    70  56  61 NE8       29.78F
IMPERIAL       PTSUNNY   77  53  43 E8        29.82F
NORTH PLATTE   CLOUDY    69  58  67 E7        29.81S
MCCOOK         MOSUNNY   81  54  39 NE17G24   29.82R

...EASTERN NEBRASKA...

CITY           SKY/WX    TMP DP  RH WIND       PRES   REMARKS
NORFOLK        CLOUDY    82  68  62 SE7       29.71F
SO SIOUX CITY  CLOUDY    78  68  71 S8        29.71F
TEKAMAH        CLOUDY    81  71  71 S10       29.70F
COLUMBUS       MOSUNNY   86  66  51 SW12G17   29.71S
ALBION         PTSUNNY   79  64  59 N16       29.71F THUNDER
OMAHA EPPLEY   CLOUDY    82  71  69 SE18      29.70F
OFFUTT AFB     CLOUDY    82  78  85 E13       29.71F HX  91
MILLARD        CLOUDY    82  73  73 SE12G20   29.69F
LINCOLN        PTSUNNY   91  68  46 SW12      29.69F HX  95
NEBRASKA CITY  PTSUNNY   88  66  48 S14G24    29.71F HX  91
BEATRICE       MOSUNNY   94  66  40 S18G25    29.68F HX  97
FALLS CITY     SUNNY     94  67  41 S18G33    29.72F HX  97

...NORTHERN KANSAS...

CITY           SKY/WX    TMP DP  RH WIND       PRES   REMARKS
GOODLAND       PTSUNNY   76  53  44 NE21      29.85F
HILL CITY      SUNNY     91  63  39 N15       29.72S HX  92
NORTON         CLEAR     84  52  32 NW24      29.76R
PHILLIPSBURG   SUNNY     91  61  35 W8        29.70R HAZE    HX  91
SMITH CENTER   SUNNY     90  66  45 W9        29.67S HX  92
BELOIT         SUNNY     91  63  38 S20G30    29.61F HX  92
HAYS           MOSUNNY   95  61  31 SW20G28   29.67F HX  95
RUSSELL        MOSUNNY   93  63  36 S21G29    29.65F HX  94
CONCORDIA      SUNNY     90  67  46 S20G29    29.65F HX  93
SALINA         MOSUNNY  100  62  28 S26G41    29.66F HX 101
TOPEKA         SUNNY     96  63  33 S23G35    29.74F HX  97



USA.gov is the U.S. government's official web portal to all federal, state and local government web resources and services.